Precipitable_Water
0.54 0.53 0.54 0.55 0.54 0.53 0.54 0.56 0.57 0.58 0.58 0.56 0.52 0.49 0.50 0.50 0.48 0.47 0.47 0.49 0.48 0.48 0.48 0.47 0.47 0.46 0.44 0.42 0.41 0.41 0.43 0.36 0.30 0.30 0.24 0.29 0.45 0.49 0.46 0.43 0.35 0.31 0.31 0.28 0.25 0.24 0.24 0.28 0.29 0.34 0.33 0.34 0.34 0.32 0.36 0.37 0.38 0.35 0.29 0.27 0.24 0.25 0.25 0.28 0.28 0.29 0.31 0.30 0.31 0.32 0.33 0.36 0.40 0.44 0.44 0.45 0.42 0.40 0.39 0.52 0.74 0.77 0.64 0.71 0.82 0.89 0.87 0.97
0.52 0.53 0.54 0.57 0.57 0.56 0.54 0.54 0.57 0.57 0.57 0.56 0.54 0.50 0.50 0.51 0.50 0.48 0.48 0.47 0.47 0.47 0.47 0.46 0.44 0.43 0.41 0.40 0.40 0.41 0.39 0.32 0.26 0.30 0.26 0.37 0.47 0.43 0.44 0.37 0.32 0.27 0.32 0.28 0.24 0.24 0.21 0.22 0.27 0.31 0.31 0.29 0.37 0.31 0.34 0.32 0.36 0.29 0.27 0.26 0.22 0.25 0.26 0.31 0.31 0.32 0.31 0.30 0.33 0.33 0.34 0.34 0.39 0.47 0.47 0.42 0.40 0.39 0.41 0.52 0.63 0.66 0.74 0.94 0.89 0.87 0.85 0.92
0.53 0.54 0.56 0.55 0.55 0.56 0.55 0.55 0.57 0.57 0.58 0.58 0.56 0.54 0.50 0.49 0.50 0.49 0.48 0.48 0.47 0.46 0.46 0.45 0.44 0.42 0.39 0.38 0.38 0.42 0.37 0.25 0.28 0.26 0.39 0.50 0.50 0.41 0.39 0.37 0.32 0.27 0.25 0.26 0.29 0.28 0.24 0.24 0.27 0.27 0.28 0.27 0.32 0.29 0.32 0.29 0.31 0.30 0.26 0.22 0.22 0.26 0.28 0.30 0.32 0.32 0.33 0.32 0.32 0.32 0.33 0.33 0.36 0.41 0.46 0.43 0.41 0.39 0.41 0.59 0.63 0.59 0.70 0.84 0.88 0.84 0.85 0.86
0.53 0.55 0.56 0.58 0.56 0.55 0.56 0.55 0.56 0.55 0.56 0.55 0.55 0.55 0.53 0.50 0.48 0.49 0.49 0.48 0.47 0.47 0.46 0.45 0.43 0.41 0.39 0.36 0.36 0.42 0.34 0.22 0.24 0.37 0.44 0.48 0.41 0.40 0.42 0.36 0.29 0.27 0.28 0.32 0.33 0.31 0.32 0.31 0.28 0.26 0.25 0.25 0.28 0.32 0.28 0.29 0.25 0.27 0.26 0.22 0.22 0.25 0.25 0.28 0.31 0.31 0.33 0.34 0.32 0.32 0.32 0.32 0.34 0.39 0.41 0.42 0.41 0.39 0.36 0.70 0.56 0.62 0.74 0.78 0.79 0.79 0.83 0.85
0.54 0.56 0.57 0.56 0.55 0.55 0.54 0.54 0.55 0.53 0.52 0.53 0.52 0.51 0.52 0.51 0.49 0.48 0.47 0.47 0.47 0.46 0.46 0.45 0.43 0.42 0.38 0.35 0.35 0.39 0.28 0.12 0.29 0.48 0.57 0.54 0.49 0.45 0.42 0.36 0.31 0.29 0.28 0.31 0.32 0.32 0.31 0.28 0.28 0.25 0.23 0.21 0.25 0.27 0.27 0.30 0.29 0.25 0.24 0.24 0.24 0.25 0.24 0.27 0.29 0.30 0.31 0.33 0.32 0.31 0.30 0.29 0.35 0.37 0.38 0.38 0.38 0.40 0.40 0.39 0.70 0.56 0.71 0.82 0.82 0.80 0.84 0.83
0.56 0.57 0.57 0.56 0.56 0.54 0.53 0.53 0.52 0.51 0.51 0.50 0.51 0.51 0.50 0.50 0.50 0.48 0.47 0.46 0.45 0.45 0.45 0.44 0.44 0.41 0.39 0.36 0.35 0.33 0.23 0.07 0.37 0.42 0.51 0.52 0.50 0.49 0.44 0.38 0.35 0.34 0.30 0.28 0.28 0.28 0.27 0.26 0.26 0.23 0.23 0.22 0.20 0.20 0.24 0.28 0.30 0.22 0.23 0.23 0.25 0.26 0.25 0.27 0.28 0.29 0.30 0.30 0.30 0.29 0.30 0.31 0.32 0.34 0.37 0.37 0.38 0.42 0.43 0.40 0.58 0.64 0.70 0.79 0.84 0.84 0.83 0.81
0.55 0.55 0.55 0.53 0.53 0.52 0.52 0.51 0.50 0.50 0.50 0.49 0.48 0.49 0.49 0.51 0.51 0.50 0.49 0.47 0.46 0.46 0.45 0.46 0.45 0.44 0.40 0.36 0.32 0.26 0.20 0.17 0.25 0.39 0.49 0.41 0.39 0.40 0.39 0.39 0.37 0.30 0.27 0.25 0.25 0.25 0.24 0.23 0.23 0.23 0.23 0.23 0.24 0.22 0.25 0.26 0.28 0.25 0.20 0.23 0.23 0.24 0.25 0.27 0.27 0.29 0.29 0.28 0.27 0.30 0.31 0.30 0.31 0.30 0.35 0.34 0.36 0.41 0.44 0.39 0.77 0.77 0.73 0.76 0.81 0.75 0.76 0.72
0.53 0.52 0.52 0.51 0.51 0.51 0.50 0.51 0.51 0.50 0.51 0.51 0.49 0.49 0.50 0.52 0.53 0.53 0.52 0.51 0.50 0.49 0.48 0.47 0.46 0.44 0.42 0.33 0.21 0.17 0.16 0.14 0.33 0.48 0.44 0.41 0.39 0.38 0.38 0.34 0.28 0.26 0.23 0.21 0.24 0.24 0.24 0.23 0.22 0.25 0.23 0.21 0.25 0.25 0.27 0.25 0.25 0.23 0.20 0.23 0.23 0.24 0.24 0.26 0.28 0.28 0.28 0.28 0.28 0.29 0.28 0.28 0.29 0.29 0.33 0.33 0.35 0.38 0.39 0.39 0.47 0.78 0.87 0.93 0.77 0.76 0.79 0.79
0.52 0.51 0.48 0.50 0.51 0.50 0.52 0.52 0.51 0.50 0.50 0.50 0.51 0.52 0.52 0.53 0.54 0.55 0.55 0.54 0.52 0.51 0.49 0.48 0.45 0.45 0.42 0.32 0.22 0.15 0.16 0.31 0.37 0.38 0.43 0.38 0.36 0.37 0.38 0.27 0.24 0.22 0.21 0.22 0.24 0.25 0.24 0.23 0.24 0.24 0.20 0.21 0.26 0.25 0.28 0.24 0.19 0.22 0.24 0.25 0.24 0.24 0.25 0.25 0.26 0.27 0.28 0.28 0.28 0.26 0.26 0.27 0.28 0.31 0.30 0.32 0.35 0.37 0.37 0.38 0.43 0.55 0.71 0.79 0.87 0.85 0.79 0.78
0.53 0.51 0.50 0.51 0.51 0.51 0.51 0.52 0.51 0.52 0.51 0.51 0.53 0.56 0.56 0.55 0.55 0.55 0.56 0.55 0.53 0.51 0.49 0.47 0.46 0.44 0.34 0.24 0.20 0.12 0.24 0.38 0.42 0.46 0.52 0.46 0.41 0.38 0.35 0.30 0.26 0.24 0.20 0.21 0.22 0.22 0.22 0.24 0.25 0.27 0.25 0.23 0.25 0.24 0.29 0.27 0.22 0.27 0.25 0.26 0.26 0.26 0.24 0.25 0.24 0.24 0.26 0.27 0.28 0.25 0.24 0.24 0.28 0.28 0.25 0.30 0.33 0.35 0.35 0.36 0.44 0.55 0.61 0.71 0.76 0.86 0.86 0.77
0.51 0.51 0.50 0.50 0.50 0.51 0.54 0.54 0.52 0.52 0.54 0.56 0.57 0.58 0.58 0.57 0.57 0.57 0.56 0.55 0.53 0.51 0.50 0.48 0.46 0.44 0.30 0.30 0.17 0.14 0.29 0.34 0.37 0.35 0.34 0.37 0.36 0.33 0.31 0.30 0.30 0.25 0.23 0.21 0.20 0.23 0.24 0.25 0.26 0.27 0.26 0.25 0.25 0.24 0.26 0.28 0.30 0.29 0.29 0.27 0.25 0.25 0.25 0.24 0.23 0.23 0.24 0.24 0.26 0.26 0.24 0.26 0.27 0.28 0.24 0.27 0.31 0.34 0.33 0.34 0.52 0.47 0.66 0.70 0.78 0.82 0.81 0.76
0.50 0.50 0.51 0.51 0.52 0.52 0.53 0.53 0.52 0.54 0.56 0.58 0.60 0.60 0.60 0.60 0.60 0.59 0.58 0.57 0.55 0.54 0.53 0.52 0.52 0.48 0.41 0.30 0.22 0.17 0.29 0.30 0.30 0.33 0.35 0.38 0.35 0.35 0.35 0.33 0.31 0.28 0.24 0.19 0.18 0.21 0.24 0.24 0.25 0.24 0.22 0.26 0.23 0.25 0.24 0.30 0.29 0.29 0.30 0.23 0.24 0.24 0.21 0.23 0.21 0.21 0.23 0.22 0.24 0.26 0.24 0.23 0.24 0.23 0.24 0.26 0.30 0.31 0.32 0.33 0.55 0.52 0.58 0.70 0.79 0.83 0.85 0.80
0.51 0.51 0.52 0.52 0.52 0.52 0.52 0.52 0.54 0.56 0.59 0.60 0.60 0.61 0.61 0.61 0.61 0.61 0.60 0.57 0.57 0.55 0.55 0.55 0.55 0.53 0.38 0.22 0.23 0.27 0.28 0.28 0.29 0.31 0.34 0.38 0.38 0.38 0.37 0.34 0.31 0.29 0.26 0.21 0.18 0.19 0.21 0.23 0.24 0.21 0.23 0.22 0.23 0.22 0.28 0.27 0.28 0.28 0.28 0.27 0.24 0.22 0.19 0.20 0.22 0.22 0.21 0.21 0.23 0.24 0.18 0.19 0.20 0.22 0.23 0.25 0.27 0.30 0.31 0.32 0.39 0.56 0.55 0.62 0.71 0.81 0.82 0.84
0.51 0.51 0.51 0.51 0.51 0.51 0.53 0.56 0.57 0.57 0.58 0.59 0.61 0.61 0.61 0.61 0.61 0.60 0.59 0.57 0.56 0.55 0.58 0.61 0.56 0.46 0.39 0.26 0.30 0.39 0.42 0.44 0.43 0.38 0.34 0.37 0.34 0.33 0.34 0.34 0.32 0.30 0.29 0.24 0.22 0.22 0.20 0.21 0.21 0.20 0.23 0.20 0.20 0.28 0.26 0.26 0.26 0.22 0.26 0.28 0.21 0.19 0.15 0.19 0.19 0.20 0.18 0.21 0.22 0.23 0.17 0.16 0.19 0.21 0.22 0.24 0.27 0.28 0.29 0.31 0.32 0.48 0.54 0.57 0.66 0.75 0.84 0.79
0.52 0.51 0.51 0.51 0.51 0.50 0.54 0.57 0.58 0.59 0.59 0.59 0.60 0.60 0.60 0.59 0.59 0.59 0.58 0.57 0.56 0.59 0.61 0.64 0.61 0.45 0.31 0.28 0.41 0.47 0.53 0.53 0.42 0.37 0.40 0.37 0.33 0.30 0.30 0.33 0.27 0.27 0.27 0.27 0.24 0.23 0.22 0.20 0.18 0.15 0.15 0.21 0.21 0.21 0.21 0.24 0.25 0.24 0.19 0.16 0.21 0.18 0.17 0.21 0.22 0.19 0.15 0.18 0.22 0.21 0.16 0.15 0.17 0.19 0.21 0.23 0.26 0.28 0.28 0.30 0.31 0.44 0.54 0.61 0.64 0.67 0.57 0.61
0.51 0.50 0.50 0.51 0.52 0.52 0.55 0.57 0.57 0.58 0.58 0.59 0.59 0.59 0.59 0.59 0.58 0.59 0.59 0.59 0.59 0.61 0.61 0.50 0.50 0.45 0.30 0.22 0.37 0.48 0.44 0.37 0.35 0.41 0.45 0.42 0.37 0.31 0.32 0.29 0.30 0.28 0.27 0.25 0.27 0.25 0.23 0.20 0.15 0.15 0.14 0.16 0.15 0.15 0.16 0.18 0.21 0.25 0.20 0.15 0.15 0.18 0.17 0.19 0.21 0.21 0.19 0.18 0.19 0.19 0.14 0.15 0.16 0.19 0.20 0.23 0.24 0.25 0.27 0.29 0.30 0.30 0.42 0.56 0.62 0.66 0.59 0.63
0.50 0.50 0.50 0.51 0.51 0.55 0.57 0.57 0.58 0.58 0.58 0.60 0.60 0.58 0.60 0.59 0.59 0.58 0.60 0.58 0.59 0.65 0.59 0.46 0.51 0.51 0.21 0.43 0.45 0.34 0.34 0.39 0.46 0.45 0.43 0.46 0.42 0.39 0.34 0.30 0.27 0.26 0.26 0.26 0.26 0.24 0.23 0.17 0.18 0.15 0.15 0.12 0.13 0.14 0.11 0.11 0.13 0.18 0.23 0.18 0.19 0.18 0.18 0.16 0.19 0.21 0.20 0.18 0.15 0.16 0.14 0.15 0.17 0.18 0.20 0.22 0.23 0.23 0.23 0.26 0.26 0.27 0.31 0.42 0.53 0.60 0.61 0.61
0.51 0.51 0.51 0.52 0.54 0.55 0.57 0.57 0.57 0.57 0.59 0.59 0.58 0.57 0.57 0.58 0.60 0.59 0.55 0.57 0.59 0.63 0.62 0.61 0.52 0.39 0.27 0.41 0.29 0.33 0.42 0.41 0.42 0.42 0.41 0.43 0.44 0.40 0.36 0.31 0.30 0.28 0.26 0.23 0.25 0.20 0.22 0.17 0.18 0.12 0.12 0.11 0.11 0.11 0.09 0.07 0.08 0.10 0.16 0.20 0.21 0.22 0.23 0.19 0.16 0.18 0.20 0.19 0.16 0.15 0.14 0.14 0.16 0.18 0.19 0.20 0.22 0.22 0.21 0.23 0.24 0.24 0.28 0.31 0.31 0.33 0.40 0.47
0.51 0.51 0.51 0.51 0.53 0.55 0.56 0.57 0.57 0.58 0.59 0.58 0.59 0.58 0.60 0.59 0.58 0.55 0.47 0.53 0.46 0.41 0.31 0.35 0.34 0.18 0.19 0.29 0.41 0.41 0.42 0.42 0.42 0.40 0.36 0.39 0.41 0.41 0.36 0.34 0.31 0.27 0.23 0.21 0.22 0.20 0.21 0.18 0.18 0.14 0.10 0.09 0.08 0.09 0.09 0.08 0.09 0.08 0.10 0.17 0.24 0.21 0.18 0.18 0.21 0.21 0.19 0.17 0.16 0.15 0.14 0.13 0.14 0.16 0.18 0.19 0.20 0.20 0.20 0.21 0.23 0.24 0.24 0.27 0.29 0.31 0.37 0.45
0.50 0.50 0.50 0.51 0.53 0.54 0.55 0.56 0.57 0.59 0.59 0.55 0.52 0.51 0.48 0.38 0.36 0.36 0.47 0.47 0.39 0.35 0.33 0.34 0.37 0.34 0.34 0.35 0.37 0.45 0.48 0.45 0.34 0.37 0.37 0.40 0.36 0.33 0.31 0.30 0.28 0.27 0.24 0.19 0.22 0.22 0.23 0.15 0.13 0.11 0.10 0.10 0.10 0.10 0.10 0.11 0.13 0.13 0.13 0.13 0.15 0.20 0.22 0.22 0.21 0.22 0.20 0.17 0.16 0.16 0.15 0.15 0.15 0.15 0.16 0.17 0.19 0.19 0.19 0.19 0.20 0.21 0.23 0.23 0.24 0.27 0.31 0.41
0.49 0.49 0.49 0.51 0.53 0.54 0.54 0.55 0.58 0.59 0.60 0.58 0.55 0.46 0.32 0.35 0.26 0.24 0.32 0.33 0.36 0.37 0.35 0.35 0.38 0.35 0.32 0.37 0.41 0.42 0.35 0.35 0.37 0.36 0.37 0.42 0.37 0.32 0.27 0.27 0.23 0.19 0.21 0.22 0.20 0.26 0.23 0.17 0.14 0.13 0.13 0.13 0.13 0.12 0.11 0.12 0.14 0.14 0.13 0.12 0.11 0.13 0.17 0.23 0.22 0.20 0.20 0.17 0.15 0.16 0.16 0.16 0.16 0.16 0.15 0.16 0.18 0.18 0.17 0.17 0.18 0.19 0.20 0.22 0.23 0.24 0.25 0.31
0.49 0.49 0.50 0.52 0.54 0.55 0.55 0.56 0.59 0.59 0.62 0.60 0.54 0.44 0.47 0.46 0.47 0.48 0.40 0.24 0.32 0.37 0.37 0.37 0.41 0.37 0.43 0.43 0.45 0.45 0.40 0.31 0.31 0.35 0.41 0.39 0.34 0.27 0.27 0.26 0.23 0.19 0.23 0.22 0.21 0.19 0.17 0.15 0.15 0.16 0.17 0.18 0.16 0.15 0.13 0.12 0.11 0.12 0.12 0.12 0.11 0.11 0.14 0.20 0.25 0.25 0.21 0.17 0.14 0.16 0.16 0.16 0.17 0.18 0.18 0.17 0.16 0.16 0.17 0.17 0.16 0.16 0.17 0.18 0.20 0.21 0.24 0.27
0.48 0.49 0.50 0.52 0.53 0.55 0.56 0.58 0.59 0.60 0.58 0.52 0.46 0.47 0.47 0.54 0.58 0.56 0.48 0.36 0.28 0.38 0.38 0.37 0.35 0.35 0.37 0.43 0.44 0.46 0.34 0.31 0.28 0.34 0.39 0.38 0.32 0.30 0.29 0.25 0.23 0.23 0.23 0.22 0.17 0.16 0.14 0.14 0.16 0.20 0.20 0.18 0.16 0.16 0.14 0.14 0.12 0.11 0.11 0.10 0.10 0.11 0.11 0.11 0.18 0.24 0.24 0.21 0.15 0.15 0.16 0.16 0.18 0.19 0.19 0.19 0.19 0.17 0.16 0.17 0.16 0.16 0.15 0.16 0.16 0.17 0.18 0.25
0.48 0.50 0.51 0.52 0.54 0.55 0.57 0.59 0.61 0.58 0.54 0.52 0.50 0.49 0.57 0.60 0.58 0.54 0.41 0.29 0.27 0.35 0.38 0.40 0.41 0.39 0.38 0.38 0.43 0.40 0.35 0.34 0.35 0.33 0.43 0.39 0.32 0.33 0.29 0.26 0.24 0.23 0.21 0.22 0.20 0.17 0.14 0.15 0.20 0.21 0.21 0.19 0.16 0.16 0.15 0.14 0.12 0.12 0.11 0.11 0.11 0.10 0.11 0.12 0.15 0.23 0.25 0.24 0.21 0.17 0.14 0.15 0.17 0.16 0.16 0.18 0.20 0.19 0.18 0.17 0.17 0.17 0.16 0.16 0.17 0.17 0.17 0.20
0.48 0.49 0.50 0.52 0.54 0.57 0.57 0.61 0.54 0.50 0.57 0.54 0.51 0.57 0.60 0.59 0.58 0.54 0.39 0.33 0.36 0.34 0.47 0.43 0.47 0.44 0.45 0.55 0.50 0.38 0.38 0.37 0.37 0.39 0.41 0.37 0.33 0.30 0.27 0.30 0.26 0.22 0.22 0.22 0.21 0.18 0.16 0.19 0.23 0.22 0.21 0.20 0.18 0.16 0.16 0.15 0.13 0.12 0.12 0.11 0.11 0.12 0.11 0.12 0.14 0.19 0.22 0.20 0.21 0.17 0.12 0.11 0.13 0.16 0.17 0.18 0.18 0.18 0.18 0.16 0.16 0.16 0.17 0.17 0.17 0.17 0.18 0.21
0.48 0.50 0.52 0.53 0.55 0.56 0.61 0.49 0.48 0.55 0.52 0.47 0.52 0.59 0.60 0.58 0.57 0.55 0.41 0.28 0.22 0.31 0.42 0.31 0.47 0.37 0.49 0.39 0.43 0.40 0.39 0.31 0.40 0.41 0.41 0.40 0.40 0.33 0.31 0.27 0.28 0.22 0.23 0.22 0.20 0.20 0.17 0.21 0.21 0.20 0.20 0.20 0.19 0.17 0.17 0.17 0.14 0.12 0.11 0.12 0.11 0.12 0.13 0.12 0.11 0.16 0.19 0.17 0.19 0.20 0.13 0.11 0.14 0.14 0.16 0.19 0.18 0.17 0.18 0.18 0.16 0.16 0.16 0.16 0.15 0.16 0.17 0.21
0.48 0.50 0.54 0.55 0.55 0.59 0.49 0.40 0.56 0.55 0.43 0.45 0.58 0.62 0.60 0.58 0.59 0.54 0.35 0.24 0.20 0.34 0.30 0.38 0.39 0.45 0.46 0.41 0.43 0.40 0.23 0.28 0.41 0.43 0.40 0.43 0.36 0.40 0.28 0.27 0.28 0.28 0.27 0.26 0.21 0.15 0.19 0.20 0.20 0.19 0.19 0.18 0.17 0.16 0.16 0.16 0.14 0.11 0.13 0.14 0.13 0.12 0.12 0.11 0.11 0.15 0.19 0.23 0.23 0.24 0.20 0.13 0.13 0.14 0.15 0.17 0.18 0.18 0.18 0.18 0.17 0.17 0.16 0.15 0.16 0.16 0.18 0.23
0.48 0.51 0.55 0.56 0.56 0.60 0.52 0.56 0.52 0.45 0.45 0.55 0.64 0.63 0.62 0.61 0.61 0.55 0.33 0.13 0.16 0.41 0.35 0.40 0.44 0.57 0.49 0.48 0.47 0.37 0.35 0.41 0.32 0.39 0.45 0.46 0.43 0.37 0.32 0.28 0.27 0.26 0.27 0.25 0.15 0.18 0.21 0.19 0.19 0.19 0.18 0.18 0.16 0.16 0.17 0.17 0.15 0.12 0.14 0.14 0.12 0.12 0.13 0.13 0.11 0.13 0.19 0.22 0.20 0.21 0.22 0.16 0.12 0.14 0.17 0.16 0.15 0.16 0.16 0.17 0.17 0.17 0.17 0.16 0.16 0.17 0.18 0.23
0.49 0.53 0.56 0.57 0.58 0.61 0.63 0.57 0.53 0.46 0.58 0.63 0.65 0.64 0.63 0.62 0.55 0.36 0.22 0.14 0.35 0.37 0.59 0.39 0.66 0.51 0.48 0.47 0.41 0.42 0.39 0.43 0.33 0.40 0.47 0.47 0.46 0.39 0.30 0.31 0.30 0.29 0.30 0.27 0.19 0.21 0.23 0.22 0.21 0.21 0.19 0.16 0.17 0.18 0.18 0.18 0.15 0.15 0.16 0.16 0.15 0.14 0.14 0.15 0.13 0.12 0.18 0.20 0.17 0.18 0.20 0.16 0.13 0.15 0.15 0.16 0.13 0.13 0.14 0.16 0.17 0.18 0.17 0.17 0.17 0.18 0.19 0.25
0.50 0.55 0.57 0.57 0.58 0.59 0.60 0.63 0.55 0.61 0.66 0.68 0.66 0.64 0.63 0.55 0.42 0.25 0.18 0.15 0.36 0.27 0.43 0.43 0.43 0.38 0.41 0.36 0.35 0.39 0.35 0.39 0.42 0.46 0.47 0.41 0.43 0.44 0.41 0.45 0.36 0.31 0.29 0.30 0.26 0.25 0.26 0.28 0.27 0.22 0.18 0.18 0.18 0.19 0.19 0.19 0.18 0.18 0.18 0.16 0.15 0.13 0.12 0.13 0.14 0.15 0.17 0.16 0.16 0.19 0.20 0.20 0.14 0.15 0.14 0.13 0.12 0.12 0.14 0.16 0.17 0.18 0.18 0.18 0.18 0.17 0.21 0.29
0.52 0.56 0.58 0.61 0.53 0.57 0.58 0.49 0.56 0.66 0.68 0.69 0.67 0.60 0.53 0.44 0.26 0.19 0.15 0.23 0.36 0.36 0.42 0.41 0.34 0.42 0.35 0.32 0.28 0.35 0.36 0.38 0.39 0.43 0.39 0.44 0.40 0.42 0.40 0.36 0.40 0.32 0.29 0.28 0.25 0.26 0.27 0.26 0.24 0.23 0.24 0.21 0.20 0.18 0.20 0.20 0.20 0.20 0.18 0.15 0.13 0.10 0.12 0.13 0.13 0.16 0.16 0.13 0.15 0.19 0.19 0.20 0.15 0.14 0.15 0.16 0.15 0.15 0.14 0.13 0.14 0.15 0.17 0.17 0.17 0.19 0.23 0.31
0.53 0.57 0.60 0.62 0.61 0.61 0.48 0.47 0.60 0.69 0.69 0.69 0.63 0.49 0.40 0.22 0.30 0.18 0.18 0.42 0.23 0.32 0.32 0.32 0.38 0.39 0.36 0.39 0.34 0.33 0.32 0.36 0.40 0.39 0.35 0.36 0.33 0.31 0.32 0.26 0.30 0.21 0.21 0.22 0.21 0.27 0.24 0.22 0.24 0.25 0.27 0.24 0.21 0.18 0.18 0.20 0.20 0.19 0.18 0.16 0.12 0.09 0.11 0.09 0.11 0.11 0.14 0.12 0.14 0.18 0.20 0.19 0.16 0.17 0.17 0.16 0.16 0.15 0.14 0.13 0.13 0.14 0.16 0.17 0.17 0.20 0.27 0.35
0.54 0.59 0.63 0.65 0.64 0.56 0.59 0.64 0.69 0.70 0.71 0.66 0.54 0.46 0.29 0.20 0.15 0.24 0.26 0.31 0.26 0.37 0.34 0.42 0.37 0.39 0.39 0.36 0.32 0.35 0.39 0.31 0.40 0.38 0.39 0.38 0.33 0.32 0.35 0.32 0.32 0.27 0.17 0.23 0.22 0.22 0.21 0.24 0.24 0.23 0.24 0.26 0.23 0.17 0.16 0.15 0.17 0.18 0.16 0.15 0.12 0.09 0.10 0.09 0.08 0.11 0.13 0.14 0.16 0.17 0.21 0.17 0.18 0.19 0.20 0.18 0.16 0.16 0.15 0.15 0.16 0.16 0.17 0.16 0.17 0.22 0.30 0.37
0.54 0.60 0.60 0.65 0.64 0.62 0.63 0.68 0.71 0.72 0.66 0.61 0.47 0.34 0.28 0.18 0.18 0.32 0.30 0.33 0.32 0.43 0.42 0.39 0.40 0.40 0.39 0.32 0.32 0.36 0.31 0.39 0.38 0.37 0.39 0.33 0.32 0.27 0.30 0.33 0.33 0.29 0.26 0.23 0.18 0.20 0.15 0.16 0.19 0.21 0.18 0.22 0.22 0.19 0.16 0.15 0.16 0.16 0.19 0.17 0.14 0.12 0.11 0.08 0.08 0.08 0.09 0.11 0.15 0.17 0.17 0.15 0.15 0.15 0.20 0.19 0.18 0.17 0.16 0.17 0.19 0.18 0.16 0.17 0.19 0.24 0.32 0.38
0.55 0.59 0.61 0.65 0.66 0.67 0.66 0.69 0.72 0.73 0.65 0.54 0.39 0.29 0.19 0.19 0.27 0.26 0.30 0.34 0.39 0.42 0.38 0.45 0.38 0.35 0.32 0.34 0.37 0.39 0.38 0.32 0.40 0.38 0.35 0.33 0.28 0.29 0.27 0.28 0.33 0.32 0.30 0.20 0.22 0.21 0.17 0.16 0.21 0.25 0.25 0.25 0.20 0.21 0.20 0.17 0.17 0.20 0.20 0.21 0.17 0.14 0.17 0.13 0.12 0.10 0.11 0.12 0.13 0.15 0.15 0.17 0.16 0.20 0.22 0.21 0.18 0.18 0.18 0.18 0.18 0.17 0.16 0.17 0.19 0.25 0.35 0.40
0.53 0.56 0.63 0.60 0.61 0.63 0.67 0.70 0.73 0.72 0.59 0.46 0.31 0.24 0.21 0.27 0.25 0.34 0.33 0.44 0.42 0.36 0.38 0.40 0.38 0.32 0.31 0.31 0.36 0.34 0.45 0.36 0.38 0.38 0.34 0.34 0.33 0.29 0.32 0.32 0.30 0.32 0.27 0.19 0.22 0.17 0.19 0.15 0.22 0.26 0.28 0.27 0.27 0.26 0.23 0.22 0.14 0.16 0.20 0.16 0.17 0.20 0.17 0.15 0.16 0.16 0.14 0.14 0.13 0.17 0.16 0.17 0.20 0.21 0.20 0.19 0.18 0.17 0.17 0.16 0.16 0.16 0.16 0.17 0.18 0.25 0.37 0.43
0.46 0.55 0.52 0.60 0.59 0.64 0.69 0.71 0.72 0.66 0.57 0.42 0.29 0.22 0.31 0.35 0.40 0.39 0.43 0.40 0.41 0.44 0.39 0.28 0.31 0.31 0.28 0.28 0.31 0.34 0.37 0.42 0.39 0.37 0.28 0.35 0.30 0.33 0.31 0.31 0.34 0.32 0.31 0.26 0.23 0.26 0.18 0.18 0.27 0.26 0.26 0.32 0.35 0.33 0.29 0.25 0.21 0.20 0.16 0.18 0.21 0.24 0.23 0.17 0.13 0.15 0.15 0.14 0.13 0.16 0.15 0.15 0.15 0.14 0.19 0.17 0.17 0.16 0.16 0.16 0.16 0.17 0.17 0.17 0.19 0.24 0.37 0.46
0.48 0.51 0.56 0.56 0.57 0.65 0.70 0.73 0.68 0.62 0.52 0.39 0.27 0.30 0.40 0.35 0.44 0.43 0.47 0.45 0.46 0.46 0.37 0.33 0.33 0.38 0.31 0.32 0.30 0.33 0.38 0.34 0.35 0.38 0.31 0.35 0.26 0.37 0.32 0.29 0.33 0.30 0.31 0.33 0.25 0.27 0.28 0.19 0.22 0.27 0.26 0.32 0.37 0.31 0.27 0.27 0.24 0.21 0.18 0.26 0.24 0.18 0.16 0.19 0.19 0.16 0.14 0.13 0.13 0.14 0.16 0.16 0.16 0.16 0.18 0.16 0.16 0.15 0.16 0.17 0.17 0.17 0.18 0.18 0.19 0.24 0.38 0.46
0.49 0.50 0.42 0.54 0.65 0.67 0.69 0.70 0.63 0.55 0.44 0.32 0.29 0.28 0.37 0.40 0.46 0.44 0.48 0.49 0.50 0.44 0.36 0.38 0.34 0.38 0.37 0.33 0.34 0.36 0.38 0.30 0.37 0.35 0.31 0.34 0.26 0.34 0.31 0.31 0.26 0.31 0.32 0.33 0.27 0.29 0.30 0.20 0.21 0.31 0.32 0.38 0.35 0.28 0.21 0.23 0.27 0.26 0.25 0.26 0.33 0.31 0.24 0.20 0.20 0.22 0.17 0.12 0.12 0.14 0.15 0.14 0.18 0.18 0.18 0.17 0.16 0.15 0.16 0.18 0.18 0.18 0.19 0.19 0.20 0.22 0.36 0.47
0.40 0.41 0.39 0.60 0.66 0.68 0.70 0.65 0.54 0.49 0.40 0.28 0.31 0.34 0.42 0.39 0.44 0.48 0.50 0.49 0.44 0.42 0.39 0.39 0.42 0.36 0.38 0.37 0.38 0.32 0.38 0.37 0.36 0.36 0.35 0.35 0.28 0.36 0.31 0.33 0.26 0.29 0.32 0.33 0.30 0.33 0.28 0.30 0.18 0.23 0.32 0.30 0.23 0.27 0.22 0.22 0.21 0.23 0.25 0.25 0.30 0.32 0.33 0.29 0.27 0.24 0.17 0.14 0.14 0.15 0.13 0.15 0.19 0.21 0.20 0.18 0.17 0.16 0.18 0.18 0.19 0.19 0.19 0.20 0.20 0.22 0.33 0.46
0.43 0.39 0.42 0.62 0.66 0.68 0.66 0.55 0.43 0.36 0.34 0.39 0.41 0.38 0.42 0.39 0.44 0.45 0.50 0.53 0.49 0.55 0.46 0.43 0.42 0.37 0.38 0.36 0.35 0.41 0.37 0.38 0.38 0.35 0.35 0.33 0.31 0.24 0.31 0.30 0.27 0.26 0.33 0.33 0.30 0.32 0.28 0.27 0.21 0.22 0.23 0.23 0.25 0.32 0.29 0.25 0.25 0.27 0.26 0.27 0.30 0.28 0.25 0.21 0.19 0.26 0.23 0.16 0.14 0.15 0.14 0.16 0.20 0.23 0.21 0.20 0.19 0.19 0.20 0.20 0.20 0.20 0.20 0.20 0.21 0.22 0.30 0.43
0.32 0.26 0.35 0.61 0.65 0.64 0.51 0.35 0.37 0.43 0.38 0.34 0.34 0.40 0.39 0.49 0.45 0.44 0.46 0.51 0.51 0.46 0.56 0.49 0.48 0.44 0.41 0.40 0.40 0.40 0.39 0.36 0.37 0.36 0.36 0.30 0.35 0.30 0.32 0.33 0.31 0.30 0.28 0.27 0.27 0.34 0.32 0.32 0.26 0.22 0.24 0.26 0.32 0.38 0.36 0.33 0.32 0.33 0.34 0.31 0.36 0.34 0.32 0.26 0.19 0.19 0.21 0.19 0.18 0.17 0.16 0.17 0.21 0.22 0.22 0.21 0.21 0.21 0.21 0.22 0.21 0.22 0.21 0.20 0.22 0.23 0.30 0.41
0.28 0.30 0.50 0.55 0.59 0.60 0.45 0.31 0.36 0.36 0.35 0.39 0.47 0.45 0.48 0.46 0.44 0.45 0.43 0.47 0.44 0.51 0.48 0.46 0.44 0.42 0.44 0.43 0.42 0.41 0.42 0.36 0.37 0.32 0.34 0.32 0.32 0.36 0.36 0.34 0.37 0.34 0.31 0.30 0.33 0.36 0.36 0.27 0.24 0.25 0.30 0.32 0.37 0.38 0.36 0.38 0.38 0.34 0.36 0.38 0.37 0.32 0.32 0.28 0.25 0.26 0.23 0.21 0.18 0.17 0.16 0.19 0.22 0.23 0.22 0.22 0.22 0.23 0.24 0.25 0.24 0.26 0.26 0.24 0.24 0.26 0.34 0.42
0.30 0.33 0.35 0.45 0.64 0.59 0.40 0.24 0.25 0.28 0.33 0.39 0.40 0.40 0.47 0.46 0.45 0.42 0.41 0.45 0.44 0.45 0.44 0.45 0.47 0.50 0.43 0.49 0.46 0.40 0.45 0.32 0.40 0.33 0.29 0.32 0.30 0.38 0.37 0.37 0.39 0.32 0.29 0.30 0.27 0.37 0.27 0.32 0.28 0.24 0.23 0.24 0.29 0.32 0.32 0.39 0.36 0.32 0.31 0.35 0.36 0.36 0.35 0.34 0.34 0.32 0.23 0.22 0.21 0.18 0.14 0.16 0.22 0.27 0.24 0.22 0.23 0.23 0.24 0.27 0.28 0.27 0.27 0.28 0.29 0.31 0.38 0.46
0.30 0.38 0.36 0.34 0.56 0.56 0.32 0.35 0.30 0.30 0.31 0.32 0.35 0.35 0.39 0.43 0.47 0.46 0.44 0.43 0.49 0.48 0.47 0.44 0.47 0.49 0.47 0.50 0.46 0.47 0.47 0.41 0.33 0.37 0.33 0.32 0.31 0.38 0.37 0.39 0.40 0.37 0.33 0.36 0.36 0.41 0.32 0.33 0.30 0.22 0.16 0.15 0.15 0.14 0.17 0.23 0.28 0.33 0.34 0.34 0.37 0.37 0.35 0.32 0.25 0.24 0.20 0.22 0.22 0.18 0.17 0.19 0.25 0.28 0.25 0.23 0.22 0.23 0.25 0.27 0.29 0.28 0.28 0.29 0.32 0.35 0.43 0.51
0.24 0.17 0.24 0.26 0.32 0.34 0.36 0.36 0.34 0.32 0.31 0.32 0.33 0.36 0.41 0.37 0.43 0.47 0.46 0.45 0.49 0.50 0.50 0.48 0.50 0.52 0.47 0.46 0.42 0.41 0.41 0.47 0.39 0.31 0.32 0.29 0.31 0.32 0.35 0.35 0.35 0.39 0.40 0.40 0.40 0.41 0.34 0.37 0.34 0.29 0.24 0.22 0.24 0.26 0.32 0.36 0.35 0.28 0.31 0.34 0.36 0.39 0.39 0.35 0.31 0.24 0.21 0.26 0.21 0.19 0.20 0.19 0.22 0.28 0.26 0.23 0.22 0.20 0.22 0.25 0.26 0.29 0.31 0.34 0.36 0.39 0.46 0.52
0.31 0.20 0.23 0.18 0.27 0.31 0.25 0.29 0.30 0.34 0.32 0.37 0.32 0.37 0.35 0.37 0.40 0.41 0.48 0.41 0.49 0.48 0.47 0.47 0.46 0.44 0.43 0.44 0.41 0.40 0.41 0.40 0.43 0.36 0.33 0.30 0.33 0.36 0.40 0.41 0.37 0.41 0.38 0.38 0.42 0.40 0.36 0.31 0.33 0.33 0.31 0.31 0.31 0.31 0.33 0.35 0.33 0.33 0.34 0.34 0.37 0.36 0.36 0.32 0.28 0.22 0.29 0.26 0.20 0.31 0.25 0.21 0.24 0.31 0.33 0.31 0.26 0.25 0.25 0.27 0.29 0.31 0.33 0.37 0.40 0.42 0.47 0.52
0.18 0.25 0.31 0.32 0.23 0.17 0.19 0.21 0.30 0.33 0.37 0.38 0.35 0.40 0.36 0.36 0.36 0.34 0.42 0.47 0.49 0.52 0.42 0.45 0.47 0.47 0.46 0.44 0.44 0.37 0.38 0.36 0.35 0.31 0.33 0.31 0.32 0.35 0.37 0.39 0.35 0.43 0.40 0.37 0.43 0.36 0.33 0.28 0.33 0.34 0.32 0.33 0.33 0.33 0.35 0.36 0.36 0.34 0.35 0.35 0.34 0.34 0.34 0.32 0.31 0.31 0.29 0.25 0.22 0.31 0.34 0.25 0.31 0.37 0.42 0.42 0.36 0.31 0.32 0.31 0.32 0.33 0.36 0.41 0.44 0.45 0.46 0.50
0.28 0.28 0.30 0.36 0.24 0.25 0.25 0.27 0.33 0.34 0.33 0.35 0.36 0.38 0.35 0.35 0.35 0.39 0.40 0.40 0.45 0.46 0.48 0.37 0.41 0.46 0.48 0.50 0.46 0.38 0.37 0.29 0.27 0.32 0.30 0.27 0.29 0.31 0.31 0.35 0.40 0.45 0.41 0.38 0.39 0.41 0.36 0.30 0.33 0.35 0.32 0.33 0.35 0.36 0.38 0.37 0.34 0.34 0.33 0.34 0.34 0.32 0.32 0.34 0.33 0.31 0.31 0.30 0.32 0.35 0.42 0.36 0.42 0.44 0.51 0.51 0.45 0.39 0.37 0.34 0.40 0.39 0.39 0.43 0.46 0.46 0.48 0.52
0.24 0.23 0.20 0.32 0.31 0.26 0.27 0.28 0.30 0.32 0.29 0.34 0.31 0.34 0.36 0.36 0.37 0.41 0.45 0.43 0.38 0.42 0.48 0.42 0.43 0.47 0.49 0.48 0.46 0.39 0.41 0.41 0.34 0.25 0.31 0.30 0.29 0.35 0.32 0.35 0.36 0.43 0.44 0.37 0.38 0.41 0.35 0.29 0.34 0.35 0.31 0.31 0.36 0.37 0.38 0.37 0.34 0.32 0.35 0.35 0.34 0.32 0.33 0.33 0.31 0.30 0.34 0.36 0.38 0.45 0.47 0.40 0.50 0.59 0.60 0.61 0.51 0.41 0.37 0.33 0.37 0.41 0.43 0.45 0.48 0.51 0.54 0.56
0.38 0.37 0.34 0.25 0.22 0.24 0.26 0.26 0.27 0.28 0.27 0.30 0.30 0.34 0.37 0.39 0.40 0.44 0.44 0.50 0.44 0.40 0.44 0.42 0.46 0.47 0.49 0.48 0.44 0.43 0.47 0.45 0.41 0.37 0.37 0.35 0.26 0.36 0.31 0.35 0.41 0.35 0.39 0.36 0.39 0.38 0.39 0.33 0.38 0.35 0.27 0.25 0.32 0.33 0.34 0.34 0.33 0.32 0.31 0.31 0.31 0.31 0.30 0.31 0.30 0.36 0.35 0.36 0.39 0.43 0.42 0.40 0.49 0.60 0.67 0.66 0.52 0.42 0.37 0.38 0.42 0.46 0.47 0.47 0.47 0.53 0.57 0.59
0.42 0.42 0.39 0.30 0.21 0.27 0.22 0.25 0.27 0.27 0.24 0.30 0.33 0.34 0.36 0.39 0.44 0.45 0.41 0.49 0.50 0.49 0.49 0.49 0.50 0.49 0.46 0.46 0.42 0.44 0.51 0.52 0.48 0.47 0.44 0.43 0.44 0.42 0.41 0.41 0.42 0.39 0.39 0.37 0.41 0.34 0.38 0.36 0.34 0.33 0.26 0.24 0.32 0.33 0.31 0.30 0.28 0.26 0.26 0.29 0.32 0.34 0.35 0.34 0.40 0.45 0.41 0.44 0.37 0.35 0.42 0.56 0.55 0.60 0.61 0.60 0.55 0.48 0.45 0.45 0.46 0.51 0.56 0.51 0.48 0.53 0.58 0.62
Wind_Speed
26 27 27 27 27 27 27 26 25 24 23 22 22 22 21 21 21 20 20 20 21 21 21 21 21 22 22 23 24 24 25 26 26 27 28 29 30 30 30 30 31 32 32 33 34 34 34 34 34 34 35 35 35 35 35 35 34 33 32 34 36 35 34 32 31 29 27 26 24 23 23 22 23 23 22 19 18 15 10 12 16 16 16 18 19 18 19 20
27 28 28 28 28 28 28 27 26 24 23 22 22 22 22 21 21 21 21 21 21 21 21 22 22 22 23 23 23 24 24 25 26 27 28 28 29 29 29 29 29 30 31 31 32 33 34 34 34 34 35 36 36 36 35 35 35 35 34 36 38 36 34 32 32 30 29 28 26 25 25 24 24 24 22 20 20 16 10 10 13 14 16 17 19 20 20 21
28 29 29 29 29 29 28 27 26 24 23 23 22 22 22 22 22 21 21 21 21 21 21 22 22 23 23 23 23 23 23 24 24 24 25 26 27 27 28 28 28 29 30 31 32 33 34 34 34 34 34 36 36 36 36 36 36 36 36 37 39 36 34 34 33 32 31 30 28 27 27 26 26 25 23 22 21 18 13 12 14 15 17 19 21 21 21 22
29 30 29 29 29 29 28 27 26 25 24 23 23 23 22 23 23 22 22 22 22 22 22 22 23 23 23 23 23 23 23 22 22 23 23 24 25 26 27 28 28 28 29 30 32 33 33 34 34 34 35 35 36 37 37 37 37 36 38 39 38 35 36 36 35 34 33 31 31 30 29 29 28 26 25 23 22 20 16 14 16 18 20 22 23 22 21 22
30 31 30 30 30 29 29 28 26 26 25 24 24 24 24 24 24 24 23 23 23 22 23 23 23 24 24 24 23 22 21 21 22 22 22 24 25 26 27 27 27 27 28 29 30 31 32 33 34 34 35 35 36 37 38 39 38 37 39 41 38 36 36 36 36 36 35 34 33 31 31 31 29 27 26 25 23 23 19 16 17 19 22 24 24 23 22 23
31 31 31 31 30 29 29 28 27 26 26 25 25 25 25 25 25 25 25 24 24 23 23 23 23 24 24 24 23 21 20 21 22 22 23 24 24 25 26 26 27 27 27 28 29 30 31 32 33 33 34 34 35 37 37 39 39 38 40 41 40 39 37 36 37 37 36 35 35 34 34 32 31 30 29 28 26 26 22 17 17 19 22 26 26 25 25 25
32 32 31 31 31 30 29 29 28 27 27 26 26 26 25 25 25 25 25 24 24 24 23 23 23 23 24 24 22 21 21 23 23 23 23 23 24 25 25 26 26 26 26 27 28 29 30 31 32 34 34 34 35 36 36 38 39 40 40 39 40 40 39 38 37 37 37 37 37 35 35 34 34 33 31 30 29 29 25 17 16 18 20 26 28 28 27 26
33 32 32 32 31 31 30 29 28 28 28 27 26 26 26 26 25 25 24 24 24 23 23 22 22 23 23 22 21 20 22 23 22 22 22 23 24 25 26 26 26 26 26 27 28 28 29 30 31 32 34 34 35 36 36 37 38 41 40 39 39 40 41 40 39 38 38 38 37 35 35 36 37 35 33 32 31 30 26 20 18 19 19 23 27 29 28 25
33 33 32 32 32 31 31 30 29 29 28 28 27 26 26 26 25 25 24 24 24 23 23 22 22 22 22 21 20 20 22 21 20 20 21 22 23 24 25 25 25 25 26 26 27 27 28 29 30 31 33 35 35 36 36 36 37 38 38 38 39 39 39 40 40 41 39 37 37 36 36 37 38 35 34 36 34 32 29 23 21 22 23 24 24 27 28 25
33 33 32 32 32 32 31 31 30 29 29 28 27 26 26 25 25 24 24 24 24 23 23 22 22 22 21 20 19 20 22 20 19 19 21 22 22 23 24 24 25 25 26 26 27 27 27 28 30 32 34 35 35 35 35 36 36 36 36 37 37 38 39 39 40 42 41 39 38 38 37 38 36 34 35 38 35 32 30 26 24 24 26 27 24 25 28 27
34 33 33 33 32 32 32 31 31 30 29 28 27 27 26 25 24 24 24 23 23 22 22 22 22 21 20 20 19 20 21 20 19 20 21 22 23 23 24 24 25 25 26 26 27 27 27 28 29 30 32 33 33 34 35 35 35 35 36 36 37 37 39 39 40 40 40 39 41 40 38 38 36 35 38 40 37 34 32 27 26 28 28 28 26 25 26 26
34 34 34 33 33 32 32 32 31 30 29 28 27 26 26 25 24 23 23 22 22 21 21 21 21 20 19 19 20 21 21 21 22 22 22 22 22 23 24 24 25 26 26 27 28 28 28 28 28 29 31 31 33 33 34 34 34 35 35 36 37 37 38 39 39 39 38 37 39 39 38 39 39 39 41 41 40 36 34 30 28 29 29 29 29 27 27 26
35 34 34 34 33 33 33 32 32 30 29 28 27 26 25 25 24 23 22 22 21 21 21 20 19 18 17 18 20 21 21 23 23 23 22 22 22 22 23 23 24 26 26 27 28 28 28 29 28 29 30 30 32 33 34 35 35 36 35 36 36 36 39 40 38 38 38 37 37 36 37 41 42 43 43 41 41 38 35 33 30 30 30 30 31 29 29 28
35 35 34 34 34 33 33 33 32 30 29 28 27 26 25 24 23 22 22 21 21 20 20 18 17 16 16 18 19 19 20 21 21 21 21 21 21 21 22 23 23 24 25 26 27 27 28 28 28 29 30 30 31 32 33 34 35 35 35 36 36 37 39 38 37 38 38 38 37 35 38 41 41 43 44 42 40 38 37 35 33 32 31 30 31 31 31 29
36 35 34 34 34 34 34 33 32 30 29 28 27 26 25 24 23 22 21 20 19 19 18 17 16 15 16 18 18 17 17 18 18 19 19 19 20 20 21 22 22 23 24 26 26 27 27 28 28 28 29 30 30 30 31 32 34 34 36 37 37 38 38 36 37 38 38 38 38 37 39 41 40 41 44 44 42 40 39 38 35 34 34 32 30 31 32 30
36 35 35 35 35 35 34 33 31 29 28 27 26 26 24 23 22 21 20 18 18 17 16 15 14 14 14 15 15 16 16 16 17 17 16 17 18 19 20 21 22 23 24 25 26 27 27 27 28 29 29 29 29 30 30 31 33 34 36 37 37 37 37 36 37 38 37 36 37 40 40 39 37 38 40 42 44 43 41 41 39 36 35 34 31 31 31 30
36 36 35 35 35 35 34 33 30 29 27 26 25 25 23 22 20 18 17 16 15 14 14 13 12 12 14 14 14 15 15 15 16 16 16 17 18 19 19 20 21 22 23 24 25 26 27 27 27 28 29 29 29 29 30 32 34 35 35 37 36 36 35 35 36 36 36 36 38 42 42 39 36 35 37 38 42 45 44 42 41 39 37 36 34 33 33 32
36 36 36 36 36 35 34 32 29 27 26 25 24 23 21 19 17 15 14 14 13 13 13 12 11 11 12 12 13 14 14 15 16 16 17 17 18 19 19 18 19 21 22 23 24 26 26 26 27 28 29 29 30 30 32 34 35 35 36 35 34 35 36 36 35 35 35 37 39 41 42 42 38 35 35 37 38 41 44 44 42 41 40 38 36 35 35 35
36 36 36 36 36 36 33 31 28 26 24 24 23 21 18 17 15 13 13 13 12 12 13 12 10 10 11 12 14 15 16 16 16 16 16 16 16 17 18 18 18 20 20 21 23 25 26 26 27 28 30 31 32 32 34 34 32 33 34 34 34 35 37 37 35 34 34 36 39 41 41 41 40 39 36 36 37 36 39 42 42 42 42 41 39 37 36 37
36 36 36 36 36 35 33 30 27 24 23 22 22 20 17 17 16 14 14 14 14 14 14 13 12 14 16 16 16 17 17 17 16 15 16 16 15 15 16 16 17 18 19 20 23 24 25 26 28 31 32 31 31 32 33 32 31 31 32 32 34 35 37 37 36 35 35 35 38 40 41 40 39 41 40 38 37 35 36 38 40 41 43 43 42 39 38 38
37 37 37 37 36 34 32 29 25 23 22 21 21 19 17 17 15 14 15 15 14 14 16 16 14 16 17 17 17 17 17 16 17 16 16 16 15 14 15 15 15 17 19 19 22 24 25 27 31 32 31 31 31 31 32 32 33 33 33 33 34 35 36 36 36 35 35 36 37 37 39 41 40 39 40 40 39 38 37 37 38 40 41 43 44 42 40 38
37 37 37 37 36 33 31 27 24 23 22 20 20 18 17 16 14 14 14 13 14 14 15 15 14 16 16 16 16 15 15 15 16 17 15 15 15 15 16 15 16 18 18 18 20 23 25 29 32 30 29 29 31 32 33 33 33 34 34 34 34 35 35 35 36 36 34 36 38 37 36 38 39 38 38 39 40 41 40 39 38 39 40 41 43 44 41 39
37 37 37 36 35 33 30 26 24 22 20 19 19 18 17 16 15 15 13 12 14 13 11 11 11 13 13 14 14 13 13 12 14 15 14 14 15 15 16 16 17 18 18 18 19 21 25 28 29 28 28 29 31 32 33 33 33 34 34 35 36 35 34 34 35 36 35 35 36 37 36 35 35 37 38 38 39 41 42 40 39 39 40 40 41 42 42 40
37 37 37 36 34 31 28 25 22 20 19 20 19 18 16 16 15 14 13 11 11 10 8 8 8 9 10 11 10 10 11 11 12 13 13 13 14 15 16 16 17 18 18 19 20 22 25 26 25 26 28 29 31 31 32 32 32 34 35 35 36 35 35 34 33 34 34 34 34 34 35 36 36 37 38 38 38 38 40 42 40 39 39 39 39 39 40 39
38 37 37 35 33 30 27 23 20 19 20 19 18 18 16 15 14 13 12 9 8 8 7 6 7 8 9 10 9 8 10 11 12 12 12 13 14 14 15 16 17 17 18 19 20 22 24 24 24 26 28 29 30 31 31 32 32 34 35 36 36 35 36 35 33 33 32 33 34 33 33 35 37 38 37 36 37 37 38 40 42 41 39 39 38 38 38 38
38 38 37 34 31 29 25 21 20 20 19 18 18 18 16 15 13 12 10 8 7 8 7 7 8 8 9 9 9 8 9 10 12 13 13 13 14 14 16 16 16 17 17 18 19 21 21 21 23 26 27 29 30 31 31 31 32 34 34 34 35 36 36 35 35 34 32 33 34 32 32 32 33 37 37 35 36 37 37 37 40 41 40 39 39 38 38 37
38 38 36 33 30 27 22 20 21 21 19 17 17 17 16 14 13 12 9 7 7 8 7 8 8 8 9 9 9 9 10 11 13 13 13 13 13 14 16 16 15 16 16 16 19 20 19 19 22 25 27 28 30 31 31 31 32 34 33 32 33 35 36 36 36 35 33 32 32 33 33 32 32 35 37 37 37 36 37 37 37 38 39 39 38 38 38 38
38 37 35 32 28 24 21 20 21 20 19 17 17 16 15 14 12 11 8 6 8 8 8 8 8 9 10 10 11 11 13 14 13 13 13 13 13 13 15 16 16 16 16 17 20 18 17 19 21 23 25 27 28 30 30 30 32 33 32 32 33 33 34 35 35 36 34 30 31 35 33 30 33 34 33 36 39 39 38 38 36 35 36 38 38 37 38 38
38 37 34 31 27 23 20 19 20 20 19 18 17 16 15 13 11 9 7 6 8 9 9 9 9 10 11 12 13 13 15 14 13 14 13 13 13 13 13 15 15 17 18 19 21 18 17 19 19 21 23 25 27 28 28 29 32 32 30 31 33 33 34 34 33 35 34 30 32 38 35 29 30 33 34 35 38 40 39 37 35 34 34 36 36 35 35 37
38 36 33 29 25 21 19 18 19 19 19 18 18 16 14 12 9 8 7 7 9 10 9 9 10 11 13 13 14 14 14 15 14 15 14 13 14 13 13 14 15 17 18 20 21 19 17 18 19 21 22 24 25 26 27 29 31 30 29 30 31 32 34 33 33 33 31 31 36 39 38 32 29 31 35 37 37 37 36 35 34 34 34 35 35 34 33 35
37 34 31 26 22 20 19 18 19 19 19 18 17 16 12 10 9 8 8 9 9 9 10 10 11 12 13 14 15 14 14 14 13 13 13 12 12 12 12 14 15 16 18 19 20 19 18 19 20 21 22 23 23 25 26 28 29 29 29 30 29 30 32 31 33 32 29 32 38 39 38 34 32 33 35 36 35 34 33 35 35 33 33 34 33 32 32 33
35 33 29 25 21 20 18 18 19 19 19 18 17 14 11 9 10 9 9 10 9 8 10 11 12 13 15 16 15 14 14 13 12 12 12 11 12 12 12 13 13 15 17 18 18 18 19 21 21 21 23 24 24 25 25 26 28 30 30 29 27 27 28 29 30 30 30 35 37 37 34 33 35 35 34 34 35 35 34 33 34 33 33 32 31 30 32 33
34 31 27 23 20 20 18 18 19 19 19 18 16 13 10 9 9 10 11 10 8 9 12 13 14 16 16 16 15 13 13 13 12 12 11 11 12 13 13 12 12 13 15 16 17 17 18 19 21 22 24 26 27 26 26 26 28 31 32 30 29 28 27 28 29 30 32 36 37 36 32 31 34 34 34 35 34 34 34 33 34 34 34 31 29 30 32 34
33 30 25 22 20 20 19 18 18 18 18 18 15 12 11 10 10 11 12 10 9 12 13 14 17 17 16 14 12 12 12 13 13 12 11 11 12 13 12 12 12 12 13 14 14 15 16 16 18 20 20 23 28 29 28 27 27 31 32 31 31 30 28 27 28 31 33 32 34 35 32 31 32 30 31 33 32 33 33 33 34 34 33 31 28 29 31 33
32 28 24 22 20 20 18 17 17 17 16 17 14 12 12 11 11 12 11 11 12 14 15 16 17 17 15 13 11 11 11 13 14 13 12 11 12 12 12 11 11 11 12 12 12 12 14 15 14 16 17 18 23 27 28 28 28 30 31 32 33 33 30 27 27 31 32 29 30 33 32 32 30 28 29 30 31 33 32 32 33 32 33 31 28 28 30 31
29 27 24 21 20 19 18 16 16 16 15 15 14 13 12 12 12 12 11 12 13 15 17 17 15 15 15 12 11 11 12 13 15 15 12 11 12 12 11 10 9 11 11 11 10 9 10 11 11 12 14 16 20 23 26 29 29 28 31 33 34 33 31 28 26 28 29 27 29 31 30 31 29 26 28 30 30 32 32 31 31 30 31 30 27 28 30 30
29 27 24 21 20 19 16 16 16 15 15 15 14 13 13 13 13 11 11 13 14 15 17 17 14 14 15 13 12 13 13 14 14 14 13 12 12 11 9 9 8 9 10 9 9 8 9 10 10 11 13 16 19 23 25 29 29 28 30 33 32 31 32 30 26 25 26 25 28 30 29 29 27 24 27 31 31 33 33 30 28 28 29 29 28 29 30 30
29 27 23 21 20 18 16 15 15 15 15 15 14 13 13 13 13 12 11 12 14 15 15 16 15 15 15 14 14 14 14 14 14 15 15 13 11 9 7 8 6 7 8 9 8 8 8 9 9 11 12 11 14 19 22 27 31 30 30 29 27 27 30 31 27 23 23 24 25 29 30 29 28 24 25 31 32 32 31 28 26 27 28 28 28 29 30 30
28 26 23 22 20 17 16 16 16 16 16 15 14 13 13 13 13 13 12 12 14 15 15 16 16 15 15 15 15 15 15 16 16 16 14 11 10 9 7 6 5 5 8 9 7 5 6 6 6 7 7 7 10 17 21 24 29 30 30 27 24 25 26 29 28 23 23 25 24 25 27 28 28 25 25 29 31 30 28 25 25 25 27 29 28 28 30 30
28 25 23 23 20 17 16 17 17 17 16 14 13 13 14 14 13 13 12 12 14 15 15 16 16 16 15 14 14 15 15 16 17 16 12 9 10 10 7 5 3 4 6 8 7 5 4 5 6 5 5 6 9 15 20 24 27 29 30 27 25 26 25 25 27 26 25 25 24 23 24 26 28 25 24 26 28 27 25 24 24 24 27 30 30 29 30 30
27 24 23 22 20 18 18 18 17 16 15 14 13 13 14 14 13 14 12 12 13 14 15 16 16 15 15 14 14 15 15 16 16 14 11 10 9 7 3 3 3 2 5 7 6 5 5 5 7 7 6 6 8 13 18 24 28 29 29 27 26 26 25 23 23 25 25 26 26 24 22 24 28 26 24 24 24 24 24 24 24 24 27 29 30 31 32 31
27 24 22 22 20 18 18 17 17 16 14 14 13 14 15 15 14 14 14 13 14 14 15 15 15 15 15 15 15 15 15 15 15 12 11 9 5 2 2 3 3 3 4 6 5 5 4 5 7 8 9 9 9 13 18 24 27 27 26 26 25 23 23 23 21 20 21 24 26 26 22 21 26 28 25 23 22 22 23 24 22 23 26 29 29 30 32 31
27 24 23 23 19 17 17 17 17 16 14 14 14 15 16 15 14 14 14 14 14 15 15 15 15 14 14 14 15 16 15 14 13 11 9 6 2 2 3 3 3 3 3 3 4 4 3 4 6 7 8 8 8 12 19 24 24 24 25 25 25 23 23 23 21 18 17 20 24 25 23 21 23 26 26 23 22 22 22 22 21 21 24 27 28 30 31 30
27 24 23 23 20 17 17 16 16 16 14 14 15 16 16 15 13 14 15 15 14 15 15 15 14 13 14 15 15 16 15 12 11 9 6 4 3 0 2 3 2 2 3 2 3 3 3 3 5 5 4 7 9 13 19 23 23 24 24 25 25 24 23 21 19 18 17 20 22 23 23 23 21 22 25 23 21 22 21 21 21 21 22 25 27 29 30 29
27 23 22 24 21 17 17 17 17 16 15 16 16 16 16 14 13 15 16 15 14 14 14 14 13 13 16 17 17 16 13 11 9 6 4 3 2 0 1 3 3 2 1 1 3 1 3 3 5 5 6 9 11 15 20 21 21 22 24 25 25 24 23 20 18 18 17 17 21 23 23 22 20 19 22 24 23 23 22 22 22 22 23 25 26 28 29 28
26 23 23 24 21 18 17 17 17 16 16 16 16 15 16 15 14 16 16 15 14 13 13 13 13 14 17 18 18 17 13 9 6 3 2 2 2 2 2 5 4 0 4 6 4 1 3 3 5 7 9 10 12 16 20 19 18 21 22 23 24 24 23 19 18 19 16 12 17 23 22 21 19 18 19 23 26 25 24 23 23 22 23 25 26 27 27 27
26 24 23 23 21 19 18 17 17 17 16 15 14 15 16 16 16 17 16 15 15 14 13 13 14 15 17 18 17 16 13 9 5 1 0 0 2 2 4 6 2 3 5 4 2 1 0 1 4 8 9 10 13 15 17 17 17 20 21 20 22 23 21 18 17 19 15 11 14 19 21 20 20 19 19 21 25 25 25 25 24 23 24 24 25 26 26 27
26 24 23 22 21 19 18 17 18 18 17 15 13 14 16 18 18 18 16 15 16 15 14 14 14 16 17 17 16 16 13 9 4 1 1 1 2 2 3 5 6 5 4 4 2 2 3 2 5 9 8 9 13 14 15 16 18 21 21 20 22 23 19 16 16 17 16 15 15 16 18 20 21 20 19 21 23 24 25 25 24 24 24 24 24 25 26 27
26 24 23 22 21 19 18 18 18 17 16 15 13 14 17 19 20 18 16 16 16 15 15 16 16 18 19 17 15 14 13 9 4 1 2 2 1 2 2 5 6 6 6 5 2 4 4 4 6 7 6 8 11 13 15 17 19 21 21 21 22 21 17 15 16 16 15 15 16 15 16 18 19 20 20 21 23 23 23 24 23 23 23 23 24 25 26 27
26 24 23 22 21 19 18 17 17 15 15 14 14 14 17 19 19 19 17 16 16 15 16 17 18 19 19 17 13 11 10 7 2 1 2 2 1 1 2 4 5 6 7 5 3 4 4 4 4 4 5 8 9 10 13 17 20 21 21 21 20 18 15 15 15 15 15 15 16 15 15 16 17 19 19 20 21 20 21 23 23 23 24 24 24 26 26 27
26 25 24 22 20 19 19 17 16 15 14 14 14 15 16 18 19 19 17 15 15 15 15 16 18 17 17 16 13 10 8 5 1 2 3 3 2 1 2 3 4 6 6 4 2 2 3 3 3 3 5 8 8 8 11 16 18 19 20 20 18 16 14 13 13 15 17 17 15 15 14 14 16 17 17 18 18 19 20 22 22 22 23 24 25 26 27 27
27 26 25 23 20 19 19 17 16 15 14 14 15 15 16 17 18 19 17 14 15 16 16 16 17 17 16 15 13 11 9 6 2 2 2 3 2 2 3 4 4 5 4 3 1 2 3 4 3 4 4 6 8 8 11 15 16 18 20 20 18 16 13 11 11 15 17 17 15 15 16 14 14 16 16 15 16 18 19 20 20 20 21 22 25 27 28 28
Wind_Direction
338 337 335 334 332 330 328 326 323 320 317 313 310 307 304 301 298 295 292 289 286 283 281 279 278 277 276 274 272 271 269 262 256 253 248 243 243 242 242 243 244 244 243 241 238 237 237 236 235 235 234 233 231 230 230 230 230 230 230 231 232 231 230 228 227 228 229 231 227 226 226 218 216 218 219 225 230 234 238 221 212 218 221 216 212 201 199 201
338 337 335 333 332 330 328 326 323 320 317 314 310 307 304 302 299 296 293 290 287 285 283 281 280 279 278 277 275 273 270 263 257 253 247 244 242 241 241 243 245 244 242 240 238 237 236 235 235 235 234 233 232 230 230 230 229 230 230 231 232 231 231 229 229 230 230 231 229 229 228 220 217 218 220 225 228 231 231 218 209 208 213 212 204 196 198 201
338 337 335 333 332 331 329 326 323 320 317 314 310 307 305 302 300 297 294 292 289 286 284 283 282 280 280 278 277 275 269 263 256 250 248 244 241 241 243 245 245 244 242 239 237 236 234 235 235 235 234 233 233 231 230 229 229 230 231 232 233 231 232 231 230 230 230 231 231 231 230 224 220 219 222 227 230 229 221 220 216 207 209 207 202 202 205 208
338 337 335 334 332 331 330 326 323 320 316 313 310 307 304 302 300 297 295 292 290 288 286 284 283 282 281 279 278 274 267 261 253 249 249 244 241 243 245 247 246 244 242 239 237 235 235 235 235 235 234 234 233 232 231 229 229 231 231 233 233 231 232 231 230 231 231 231 231 231 231 229 223 220 223 228 229 225 218 221 219 208 207 206 206 210 212 214
339 337 335 334 332 331 330 326 322 319 315 312 309 306 304 301 299 297 295 292 290 288 286 285 284 283 281 280 278 272 265 259 252 250 250 246 245 246 247 247 246 244 242 240 238 236 235 234 234 234 233 233 233 232 232 230 230 233 233 234 234 232 233 232 230 232 232 232 232 231 230 229 227 222 223 226 224 222 223 230 226 212 209 212 213 213 214 216
338 337 335 334 333 331 329 326 322 318 316 312 309 306 303 301 298 296 294 292 290 288 286 284 283 283 282 281 276 268 261 257 253 251 249 247 246 247 247 247 246 244 241 240 239 236 236 235 233 233 232 233 232 232 233 231 230 233 235 235 234 233 234 233 231 231 231 232 232 231 230 230 230 227 224 225 225 224 228 237 232 220 214 214 215 215 217 219
338 337 335 334 333 331 329 327 323 319 316 313 309 306 303 301 299 296 294 292 289 287 286 284 283 282 282 280 273 264 260 258 256 252 248 247 247 247 249 249 246 244 241 240 239 238 237 236 234 232 232 232 233 232 233 233 231 232 234 234 234 234 234 234 233 232 231 231 231 231 232 230 230 229 225 223 225 224 228 233 226 221 217 213 214 217 221 224
337 336 335 334 332 331 329 326 323 319 316 313 309 306 304 302 299 296 294 291 289 287 286 284 283 282 282 278 271 267 262 258 256 251 247 248 249 249 250 249 246 244 242 240 240 240 238 236 235 233 231 231 232 232 232 233 233 233 233 234 234 234 234 234 234 233 232 231 232 232 231 230 229 229 228 225 226 224 225 230 224 222 221 216 217 218 220 225
337 335 334 333 332 330 328 326 323 320 316 313 310 308 305 302 299 296 294 292 290 288 286 285 284 284 282 276 271 269 263 256 255 252 249 250 251 251 250 249 246 244 243 241 241 240 237 236 236 235 233 233 232 232 232 230 231 233 234 234 234 234 234 232 232 232 232 231 231 231 231 230 229 230 230 227 226 225 225 230 226 221 221 221 222 219 219 223
337 335 334 333 332 330 328 326 323 320 317 314 311 309 306 303 299 296 294 292 290 289 288 286 285 284 282 277 272 268 261 257 255 253 253 253 252 251 249 248 246 245 243 242 241 239 238 237 238 237 235 233 232 231 231 229 231 234 235 235 234 235 234 232 231 230 231 231 230 230 231 231 230 229 229 227 224 224 226 228 225 220 220 221 222 220 220 224
337 336 334 333 332 330 328 326 323 320 317 315 312 309 307 303 299 296 294 292 290 289 287 285 285 283 281 278 272 265 260 258 257 256 257 256 253 250 248 247 246 245 243 243 241 239 239 239 239 237 233 233 234 233 231 230 233 234 234 235 235 236 235 233 231 229 229 230 229 230 232 232 230 228 228 227 225 224 226 227 224 221 221 221 222 220 221 225
337 336 334 333 332 330 328 326 324 321 318 316 313 310 307 303 299 296 294 292 290 289 287 285 284 281 280 277 267 263 263 263 264 262 260 256 253 251 249 248 246 244 243 242 241 239 239 239 239 236 233 234 235 232 232 232 234 234 233 234 234 234 235 232 231 229 228 229 228 229 233 233 229 228 227 227 227 226 226 226 222 222 222 220 222 222 222 225
337 336 334 333 332 330 328 327 325 322 319 317 314 311 308 304 301 297 295 293 291 289 288 286 284 281 278 274 267 267 267 267 267 265 260 256 254 251 249 248 246 243 242 241 241 239 238 238 237 236 235 235 233 232 234 235 234 233 231 232 233 233 233 231 230 230 229 228 225 225 231 232 228 228 228 226 227 226 226 225 221 222 223 219 220 222 223 227
337 336 335 334 332 331 329 328 326 323 320 318 315 312 309 305 301 298 296 293 291 290 288 286 283 279 274 272 272 271 269 267 267 264 259 255 254 252 250 248 245 243 242 241 240 239 238 237 236 236 235 234 233 235 236 234 232 231 232 232 231 231 232 230 228 228 229 228 223 224 231 232 228 229 228 226 226 226 226 226 221 220 223 222 220 221 224 227
338 336 335 334 333 332 330 329 327 324 322 319 316 313 310 306 302 299 296 293 291 290 289 286 282 278 275 273 272 271 270 269 266 265 260 255 254 252 249 247 245 244 242 241 240 239 237 236 235 234 234 234 234 234 233 231 230 229 231 231 230 231 232 231 229 227 228 228 223 224 232 233 229 229 228 226 227 228 227 226 223 220 222 224 223 223 225 227
339 338 336 335 334 333 332 330 328 325 323 321 318 316 313 309 304 300 295 292 293 292 290 289 284 276 276 275 272 272 272 268 267 265 259 255 253 251 250 248 247 245 243 241 240 238 237 236 235 233 233 233 232 231 231 231 231 228 229 231 230 231 232 231 230 227 226 228 225 225 231 232 231 229 227 227 227 228 228 227 225 222 222 224 226 226 227 227
340 338 337 336 335 334 333 331 329 327 325 323 321 320 319 316 309 303 297 294 294 292 289 291 287 277 274 274 275 276 272 268 269 264 258 257 253 251 251 250 249 247 246 244 241 237 236 235 234 232 232 230 229 228 229 230 230 229 228 231 232 231 231 230 230 228 225 226 227 228 231 232 231 229 227 226 225 227 228 227 227 226 222 223 226 228 229 229
340 339 338 337 336 335 334 332 330 328 327 325 324 323 322 322 319 311 304 299 297 296 291 289 285 280 277 273 276 280 278 277 275 266 260 260 256 253 252 253 253 250 248 246 241 236 234 235 232 232 232 229 228 227 227 228 229 229 229 231 232 232 231 230 229 228 225 226 228 229 231 231 231 231 229 226 224 225 228 228 227 227 224 223 225 227 229 229
341 340 339 338 337 336 335 333 331 330 329 328 327 326 324 326 327 320 312 306 300 298 293 285 276 279 280 275 278 283 284 283 280 270 261 260 258 254 254 256 255 251 248 246 243 237 234 235 232 231 232 230 229 228 229 230 230 231 231 231 233 233 232 231 230 228 226 228 229 229 231 231 230 230 230 228 226 224 226 228 228 227 226 224 225 227 228 228
341 340 340 339 338 337 336 334 333 332 332 332 332 331 329 328 324 317 313 305 296 291 287 281 273 276 281 280 282 286 287 285 282 274 261 258 256 253 254 258 258 254 250 246 244 241 235 235 234 232 232 231 231 232 232 233 233 233 233 232 233 233 232 231 230 229 227 229 231 230 232 232 231 230 229 229 228 226 225 227 227 227 227 226 226 227 228 229
341 341 340 339 339 338 337 335 334 333 334 334 334 334 332 329 322 317 315 307 296 289 285 281 275 275 278 279 281 285 288 285 282 277 266 259 255 253 255 255 258 258 254 249 246 244 239 236 236 234 233 233 233 233 233 233 233 233 232 232 233 232 232 231 230 229 227 230 232 230 231 232 231 230 229 228 228 228 226 225 226 226 227 228 227 227 228 230
342 341 340 339 339 339 337 336 335 334 335 336 337 335 331 329 325 321 320 313 303 295 287 284 278 275 277 278 278 281 286 284 282 279 268 258 254 254 256 256 258 257 255 254 250 247 243 239 239 238 235 234 233 232 232 232 232 232 231 231 232 231 232 232 230 229 227 229 232 230 232 232 230 230 230 228 227 228 228 226 227 226 227 228 229 229 229 230
342 341 341 340 340 339 338 337 336 335 337 339 337 334 332 330 327 325 325 318 311 304 295 292 283 278 282 283 281 279 280 283 284 282 270 257 254 254 256 258 258 256 254 253 249 245 244 242 240 237 234 233 233 232 231 232 231 230 230 230 231 230 231 231 229 228 228 230 232 231 232 234 231 230 229 227 226 227 228 228 228 227 228 229 229 230 230 230
342 342 341 340 340 340 339 338 337 337 338 338 336 334 334 331 329 331 330 321 315 313 309 306 296 289 292 297 295 280 274 279 285 286 275 260 258 259 258 256 254 254 253 250 247 247 247 245 239 234 232 231 232 232 230 231 231 230 230 230 230 230 230 230 229 229 231 232 231 230 233 233 230 228 228 227 226 227 227 227 228 228 228 228 228 229 229 229
342 342 341 341 340 340 340 340 340 340 338 338 337 336 335 333 332 334 334 326 318 315 315 319 312 305 307 309 306 291 283 284 285 287 282 268 262 265 264 258 255 254 251 248 248 251 252 246 238 235 233 230 231 231 229 229 231 231 229 229 230 231 231 231 230 229 230 231 228 225 230 233 229 227 227 226 226 227 227 227 227 228 228 228 228 228 228 228
342 342 342 341 341 341 342 343 343 341 339 338 338 336 335 335 335 336 335 333 329 321 319 323 317 315 318 316 310 305 302 298 291 288 286 278 270 269 268 264 259 255 251 249 250 254 253 244 237 235 233 231 230 229 227 227 230 231 228 228 230 230 231 230 228 226 227 229 227 224 229 233 231 228 226 224 225 226 227 227 227 226 227 227 227 229 229 228
343 342 342 342 341 342 344 344 344 343 340 337 337 337 336 335 335 336 336 337 337 329 320 319 319 321 320 317 315 310 306 305 304 296 289 286 280 274 270 265 259 256 252 251 252 252 249 241 237 236 233 232 230 229 227 225 229 231 227 227 229 229 229 228 227 226 226 229 231 229 231 232 231 228 225 223 224 226 226 226 226 224 225 227 228 229 229 228
343 342 342 342 342 342 342 342 344 344 342 338 337 338 337 335 334 337 338 334 334 331 322 316 318 321 318 318 317 309 304 306 307 302 295 291 288 279 271 264 258 257 252 250 253 253 246 239 236 234 233 232 230 229 227 226 230 231 228 228 229 229 228 227 226 226 226 230 232 230 229 230 230 228 225 222 223 225 224 223 223 223 224 227 229 229 228 226
343 343 344 343 343 344 343 342 344 345 343 341 340 339 338 337 338 340 341 334 331 329 324 319 319 319 319 319 315 309 308 306 302 301 298 293 290 283 276 271 265 262 256 251 254 254 247 241 236 232 232 232 230 228 227 228 230 229 228 229 229 229 228 225 224 224 225 227 229 228 226 227 229 227 223 222 222 222 223 223 222 222 224 226 227 228 226 224
344 344 345 345 346 347 347 345 344 344 343 341 340 339 340 342 345 347 344 337 331 327 326 324 321 321 323 321 313 309 309 303 299 299 296 292 290 287 282 277 270 265 262 257 256 253 249 246 239 233 232 232 230 229 228 228 229 227 228 228 227 227 225 224 223 222 222 225 226 226 225 227 232 227 221 221 222 221 222 223 223 223 224 225 226 227 225 223
344 345 347 347 348 349 349 347 346 347 346 344 342 342 345 348 355 356 344 335 331 329 331 327 322 323 324 320 314 312 311 308 306 301 294 292 293 293 290 280 269 263 262 260 256 252 249 246 241 236 233 231 230 230 229 228 226 224 224 224 223 222 220 221 222 218 219 222 222 223 224 228 231 228 223 223 222 221 221 222 222 222 223 224 226 228 226 223
345 346 347 348 349 348 348 347 348 350 350 348 347 349 353 355 357 352 338 335 334 334 334 326 323 325 322 316 312 312 313 314 313 305 295 291 292 291 286 278 269 263 260 256 253 251 248 245 242 240 236 231 231 231 229 227 224 220 220 219 218 216 214 215 216 213 216 221 220 218 221 227 230 229 227 225 222 220 220 221 221 220 222 225 226 226 224 220
346 346 348 349 350 349 346 345 347 350 350 351 351 353 0 1 352 343 336 336 332 330 333 328 324 323 319 316 314 313 316 315 314 310 299 291 292 293 287 275 265 261 260 254 250 249 251 251 246 242 239 232 230 229 227 224 220 217 216 213 212 211 210 211 210 210 215 219 218 217 219 226 231 229 226 224 221 218 218 219 217 217 221 225 224 222 221 217
346 346 347 348 349 347 345 344 347 350 350 353 355 359 4 359 344 338 335 333 328 328 332 332 327 323 319 317 316 321 322 316 315 313 304 297 296 297 294 279 263 259 260 255 249 245 249 254 245 239 238 231 228 227 225 223 220 217 213 211 212 211 209 209 207 209 214 216 215 215 217 223 225 225 222 220 220 218 216 214 214 216 221 224 221 218 217 214
347 347 347 347 347 347 345 344 347 351 351 355 359 2 2 353 342 340 336 334 334 330 328 328 328 327 325 320 317 326 327 320 320 316 304 296 295 297 297 285 267 259 254 249 248 242 242 249 242 234 236 231 228 227 222 220 219 214 210 210 212 210 209 210 211 212 212 213 213 212 217 222 224 226 223 218 217 217 215 214 214 218 222 220 217 214 213 211
349 349 349 348 347 347 347 346 349 352 352 357 2 359 356 350 344 344 342 339 337 333 330 329 329 330 331 327 321 324 323 320 323 320 306 295 294 294 292 290 274 253 244 238 237 231 232 244 240 232 236 233 230 226 219 216 214 208 206 209 209 206 208 211 213 212 207 210 214 213 218 224 226 230 224 215 214 214 215 216 215 217 219 216 213 211 210 208
351 351 350 349 347 347 348 350 353 354 355 1 1 354 351 349 346 345 344 341 337 335 336 334 334 333 330 326 322 323 323 320 320 319 311 300 299 294 286 294 281 244 233 226 229 229 233 250 247 234 239 239 230 224 217 211 207 202 202 203 203 205 208 208 209 209 205 209 214 212 216 220 220 226 221 211 210 212 214 215 214 215 214 213 211 209 206 205
351 352 352 350 348 348 350 353 356 356 357 360 356 351 351 349 347 345 345 344 341 340 339 336 337 335 329 323 321 323 324 320 317 317 309 299 297 292 287 297 280 236 222 213 224 236 236 254 259 241 239 241 225 213 207 203 201 200 198 195 195 200 205 204 205 209 205 205 210 210 213 215 215 219 214 208 208 209 211 212 213 213 211 210 210 207 205 204
351 353 355 352 350 353 356 357 358 357 357 357 353 352 352 348 345 342 341 344 345 343 340 337 337 335 330 324 321 323 323 320 319 318 311 303 296 289 288 293 268 225 209 203 215 235 235 251 264 239 220 217 208 199 195 195 196 196 196 196 195 197 200 200 204 209 206 203 205 208 210 212 213 213 208 205 206 207 207 210 212 212 209 209 208 206 205 203
353 355 355 353 354 357 358 358 358 357 356 354 353 352 350 348 346 339 337 343 346 343 340 339 338 336 333 328 323 325 326 323 323 321 314 309 303 293 283 267 236 211 199 198 208 228 236 244 252 240 213 206 204 197 196 196 192 190 193 196 196 196 197 199 205 210 207 202 201 203 208 213 212 208 203 203 206 207 205 207 211 211 209 209 207 205 204 203
355 355 354 354 356 356 356 357 356 355 354 352 351 350 348 348 346 341 339 341 342 340 338 338 338 337 338 334 329 330 330 329 330 326 318 315 312 301 274 205 186 194 196 197 204 216 229 242 248 245 233 220 212 205 201 196 189 187 189 191 192 193 194 196 202 208 206 203 202 201 208 213 209 205 202 203 205 206 205 206 209 211 209 207 205 203 201 201
355 355 353 353 352 351 354 355 352 354 353 350 348 347 345 346 345 343 343 343 342 342 342 341 339 338 339 338 334 332 331 331 335 333 325 324 317 272 219 203 202 202 199 203 212 222 234 246 245 241 237 232 220 208 196 185 183 185 188 189 190 191 191 191 196 202 205 207 205 204 210 214 209 206 204 203 201 200 203 206 207 209 207 203 201 200 199 199
355 354 354 353 350 351 355 354 353 356 352 345 345 345 344 347 347 344 345 347 347 347 346 345 343 341 342 341 337 335 332 331 336 339 336 341 349 196 214 237 236 198 186 209 225 223 229 239 241 245 242 228 209 193 181 174 176 184 188 190 190 190 190 193 200 206 211 215 208 203 209 213 210 208 207 205 200 197 202 205 202 204 204 200 197 196 196 197
354 352 354 355 353 354 355 353 354 356 353 348 348 347 346 348 349 345 344 347 349 349 347 346 346 347 347 345 340 337 334 330 336 345 354 21 50 107 223 250 258 201 200 227 220 220 238 236 235 242 218 189 178 172 171 172 176 182 185 186 188 190 192 198 207 207 210 217 208 198 204 210 208 207 208 208 202 197 202 204 199 197 197 196 194 193 193 195
355 354 354 354 354 355 354 352 354 356 354 352 350 349 349 349 349 344 341 343 347 348 348 346 345 345 345 345 342 339 336 329 332 350 20 46 54 76 247 283 291 278 258 144 143 206 278 244 228 218 182 169 169 168 168 172 178 181 182 184 186 190 193 197 204 200 199 212 208 199 201 208 209 207 209 211 205 199 204 207 202 196 193 191 191 191 193 194
357 357 355 354 356 357 354 351 354 356 355 353 351 352 352 350 349 347 344 346 348 347 346 345 345 344 343 344 345 344 342 334 326 339 20 28 66 82 335 310 294 215 106 120 136 257 297 244 216 203 183 171 170 172 171 172 178 182 183 185 188 191 192 194 198 197 200 213 211 203 200 204 209 210 211 214 211 207 209 209 204 199 194 192 192 192 194 195
358 358 358 357 356 356 354 353 355 355 351 352 354 354 350 348 350 352 351 350 349 348 349 348 349 347 343 344 348 348 349 348 333 314 284 12 87 70 336 328 334 124 113 104 113 217 260 200 184 179 176 172 171 174 177 180 185 187 187 189 190 190 191 194 197 200 205 207 205 205 203 202 209 213 213 215 213 210 210 206 201 198 196 196 196 195 195 195
359 357 358 359 356 355 354 351 350 348 344 347 354 352 348 349 352 353 352 350 350 353 354 349 348 347 342 344 349 350 354 358 353 23 135 131 97 74 15 23 50 78 72 27 18 125 133 138 162 165 170 173 175 181 187 190 190 188 187 188 189 189 190 194 200 205 208 204 199 203 201 198 204 211 211 212 211 208 205 202 199 196 195 196 197 195 195 194
359 357 355 357 355 351 348 343 342 344 343 345 352 353 351 352 352 353 352 352 353 357 356 349 347 348 346 346 353 356 1 6 2 73 138 153 122 84 51 39 40 39 31 25 46 113 115 130 157 168 178 178 180 189 193 191 188 184 183 184 186 189 192 195 203 207 204 200 197 196 196 195 198 204 207 209 209 204 199 197 197 195 194 195 195 194 193 193
359 358 355 354 352 349 346 343 345 348 348 350 354 354 354 354 353 353 354 354 354 357 359 353 348 349 349 351 357 1 4 6 346 226 164 175 182 53 39 29 23 14 20 44 96 107 104 136 164 170 178 177 178 186 187 184 182 180 179 180 180 184 190 195 202 201 194 193 191 187 191 195 194 198 204 206 203 197 194 194 195 195 194 193 194 194 193 193
359 358 356 354 352 351 351 349 350 352 352 356 358 355 356 356 353 352 354 355 356 356 357 353 350 352 355 356 359 4 7 9 328 232 210 207 229 337 360 2 7 6 17 52 119 122 99 120 144 136 161 177 175 178 180 175 174 176 178 177 175 177 183 189 195 195 191 192 191 184 184 188 192 197 201 199 194 191 193 193 193 195 196 193 192 193 193 193
358 358 357 355 352 353 354 352 352 354 355 356 355 353 354 353 351 353 356 358 357 352 349 348 348 353 357 357 358 0 1 0 336 260 232 226 244 273 289 301 327 352 15 41 89 167 121 107 118 125 155 181 177 177 177 169 167 174 178 176 172 173 178 182 190 194 191 188 187 184 182 186 193 195 192 188 187 189 193 194 193 195 196 194 191 191 191 192